timestamp,surface_pressure_avg,surface_temp_avg,battery_voltage,lat,long
2020-12-04 00:09:01+00:00,283.408,6.2,12.65,47.84626,-54.09684
2020-12-04 00:19:01+00:00,288.1096,6.2,12.65,47.84626,-54.09684
2020-12-04 00:29:01+00:00,299.4897,6.26,12.65,47.84626,-54.09684
2020-12-04 00:39:01+00:00,305.7397,6.25,12.65,47.84626,-54.09684
2020-12-04 00:49:01+00:00,303.9347,6.27,12.65,47.84626,-54.09684
2020-12-04 00:59:01+00:00,311.1797,6.29,12.65,47.84626,-54.09684
2020-12-04 01:09:01+00:00,316.8663,6.3,12.65,47.84626,-54.09684
2020-12-04 01:19:01+00:00,315.668,6.3,12.65,47.84626,-54.09684
2020-12-04 01:29:01+00:00,309.5897,6.29,12.65,47.84626,-54.09684
2020-12-04 01:39:01+00:00,309.0947,6.2,12.65,47.84626,-54.09684
2020-12-04 01:49:01+00:00,316.1346,6.24,12.65,47.84626,-54.09684
2020-12-04 01:59:01+00:00,313.4847,6.26,12.65,47.84626,-54.09684
2020-12-04 02:09:01+00:00,309.8646,6.29,12.65,47.84626,-54.09684
2020-12-04 02:19:01+00:00,314.1896,6.3,12.57,47.84626,-54.09684
2020-12-04 02:29:01+00:00,316.4097,6.3,12.57,47.84626,-54.09684
2020-12-04 02:39:01+00:00,311.2462,6.3,12.57,47.84626,-54.09684
2020-12-04 02:49:01+00:00,310.4047,6.3,12.57,47.84626,-54.09684
2020-12-04 02:59:01+00:00,312.238,6.3,12.57,47.84626,-54.09684
2020-12-04 03:09:01+00:00,307.033,6.3,12.57,47.84626,-54.09684
2020-12-04 03:19:01+00:00,301.2213,6.3,12.57,47.84626,-54.09684
2020-12-04 03:29:01+00:00,302.0463,6.3,12.57,47.84626,-54.09684
2020-12-04 03:39:01+00:00,299.173,6.3,12.57,47.84626,-54.09684
2020-12-04 03:49:01+00:00,292.9496,6.3,12.57,47.84626,-54.09684
2020-12-04 03:59:01+00:00,289.8397,6.3,12.57,47.84626,-54.09684
2020-12-04 04:09:01+00:00,288.4948,6.3,12.57,47.84626,-54.09684
2020-12-04 04:19:01+00:00,280.2881,6.3,12.57,47.84626,-54.09684
2020-12-04 04:29:01+00:00,273.1314,6.28,12.57,47.84626,-54.09684
2020-12-04 04:39:01+00:00,268.4664,6.2,12.57,47.84626,-54.09684
2020-12-04 04:49:01+00:00,264.4481,6.2,12.57,47.84626,-54.09684
2020-12-04 04:59:01+00:00,253.1864,6.2,12.57,47.84626,-54.09684
2020-12-04 05:09:01+00:00,248.2298,6.2,12.57,47.84626,-54.09684
2020-12-04 05:19:01+00:00,242.6497,6.2,12.57,47.84626,-54.09684
2020-12-04 05:29:01+00:00,234.4131,6.2,12.57,47.84626,-54.09684
2020-12-04 05:39:01+00:00,224.0848,6.19,12.57,47.84626,-54.09684
2020-12-04 05:49:01+00:00,221.6981,6.18,12.57,47.84626,-54.09684
2020-12-04 05:59:01+00:00,215.1498,6.19,12.57,47.84626,-54.09684
2020-12-04 06:09:01+00:00,207.8164,6.2,12.57,47.84626,-54.09684
2020-12-04 06:19:01+00:00,203.8781,6.2,12.57,47.84626,-54.09684
2020-12-04 06:29:01+00:00,198.5848,6.2,12.57,47.84626,-54.09684
2020-12-04 06:39:01+00:00,192.0315,6.2,12.57,47.84626,-54.09684
2020-12-04 06:49:01+00:00,191.2332,6.2,12.57,47.84626,-54.09684
2020-12-04 06:59:01+00:00,191.9881,6.2,12.57,47.84626,-54.09684
2020-12-04 07:09:01+00:00,189.5448,6.2,12.57,47.84626,-54.09684
2020-12-04 07:19:01+00:00,191.1782,6.2,12.57,47.84626,-54.09684
2020-12-04 07:29:01+00:00,194.8548,6.2,12.57,47.84626,-54.09684
2020-12-04 07:39:01+00:00,192.1598,6.2,12.57,47.84626,-54.09684
2020-12-04 07:49:01+00:00,192.2231,6.2,12.57,47.84626,-54.09684
2020-12-04 07:59:01+00:00,197.6998,6.2,12.57,47.84626,-54.09684
2020-12-04 08:09:01+00:00,197.6248,6.2,12.57,47.84626,-54.09684
2020-12-04 08:19:01+00:00,195.6748,6.2,12.57,47.84626,-54.09684
2020-12-04 08:29:01+00:00,200.3198,6.2,12.57,47.84626,-54.09684
2020-12-04 08:39:01+00:00,209.618,6.2,12.57,47.84626,-54.09684
2020-12-04 08:49:01+00:00,212.8981,6.2,12.57,47.84626,-54.09684
2020-12-04 08:59:01+00:00,215.1647,6.2,12.57,47.84626,-54.09684
2020-12-04 09:09:01+00:00,223.7614,6.2,12.57,47.84626,-54.09684
2020-12-04 09:19:01+00:00,236.0298,6.2,12.57,47.84626,-54.09684
2020-12-04 09:29:01+00:00,235.8781,6.2,12.57,47.84626,-54.09684
2020-12-04 09:39:01+00:00,235.9015,6.2,12.57,47.84626,-54.09684
2020-12-04 09:49:01+00:00,243.8381,6.2,12.57,47.84626,-54.09684
2020-12-04 09:59:01+00:00,249.3698,6.2,12.57,47.84626,-54.09684
2020-12-04 10:09:01+00:00,245.7332,6.2,12.57,47.84626,-54.09684
2020-12-04 10:19:01+00:00,245.6898,6.2,12.57,47.84626,-54.09684
2020-12-04 10:29:01+00:00,256.3581,6.2,12.57,47.84626,-54.09684
2020-12-04 10:39:01+00:00,262.9314,6.2,12.57,47.84626,-54.09684
2020-12-04 10:49:01+00:00,259.5514,6.2,12.57,47.84626,-54.09684
2020-12-04 10:59:01+00:00,261.3881,6.2,12.57,47.84626,-54.09684
2020-12-04 11:09:01+00:00,271.6498,6.2,12.57,47.84626,-54.09684
2020-12-04 11:19:01+00:00,279.3414,6.27,12.57,47.84626,-54.09684
2020-12-04 11:29:01+00:00,281.2497,6.3,12.57,47.84626,-54.09684
2020-12-04 11:39:01+00:00,289.5214,6.3,12.57,47.84626,-54.09684
2020-12-04 11:49:01+00:00,297.3314,6.3,12.57,47.84626,-54.09684
2020-12-04 11:59:01+00:00,300.1164,6.34,12.57,47.84626,-54.09684
2020-12-04 12:09:01+00:00,303.793,6.35,12.57,47.84626,-54.09684
2020-12-04 12:19:01+00:00,317.7164,6.37,13.44,47.84626,-54.09684
2020-12-04 12:29:01+00:00,326.1097,6.39,13.44,47.84626,-54.09684
2020-12-04 12:39:01+00:00,330.1179,6.39,13.44,47.84626,-54.09684
2020-12-04 12:49:01+00:00,334.673,6.39,13.44,47.84626,-54.09684
2020-12-04 12:59:01+00:00,341.9662,6.4,13.44,47.84626,-54.09684
2020-12-04 13:09:01+00:00,347.18300000000005,6.4,13.44,47.84626,-54.09684
2020-12-04 13:19:01+00:00,349.2329,6.4,14.08,47.84626,-54.09684
2020-12-04 13:29:01+00:00,352.13800000000015,6.4,14.08,47.84626,-54.09684
2020-12-04 13:39:01+00:00,353.4279,6.4,14.08,47.84626,-54.09684
2020-12-04 13:49:01+00:00,353.983,6.4,14.08,47.84626,-54.09684
2020-12-04 13:59:01+00:00,355.6013,6.4,14.08,47.84626,-54.09684
2020-12-04 14:09:01+00:00,356.1363,6.4,14.08,47.84626,-54.09684
2020-12-04 14:19:01+00:00,355.6013,6.41,14.56,47.84626,-54.09684
2020-12-04 14:29:01+00:00,355.6678,6.43,14.56,47.84626,-54.09684
2020-12-04 14:39:01+00:00,358.4913,6.42,14.56,47.84626,-54.09684
2020-12-04 14:49:01+00:00,360.1447,6.45,14.56,47.84626,-54.09684
2020-12-04 14:59:01+00:00,354.7996,6.47,14.56,47.84626,-54.09684
2020-12-04 15:09:01+00:00,349.5229,6.45,14.56,47.84626,-54.09684
2020-12-04 15:19:01+00:00,350.7247,6.48,14.64,47.84626,-54.09684
2020-12-04 15:29:01+00:00,346.5396,6.5,14.64,47.84626,-54.09684
2020-12-04 15:39:01+00:00,341.3229,6.47,14.64,47.84626,-54.09684
2020-12-04 15:49:01+00:00,336.0563,6.49,14.64,47.84626,-54.09684
2020-12-04 15:59:01+00:00,327.8013,6.49,14.64,47.84626,-54.09684
2020-12-04 16:09:01+00:00,320.5696,6.5,14.64,47.84626,-54.09684
2020-12-04 16:19:01+00:00,320.6863,6.5,14.24,47.84626,-54.09684
2020-12-04 16:29:01+00:00,321.288,6.5,14.24,47.84626,-54.09684
2020-12-04 16:39:01+00:00,307.4797,6.47,14.24,47.84626,-54.09684
2020-12-04 16:49:01+00:00,295.9997,6.46,14.24,47.84626,-54.09684
2020-12-04 16:59:01+00:00,290.3831,6.46,14.24,47.84626,-54.09684
2020-12-04 17:09:01+00:00,282.4864,6.48,14.24,47.84626,-54.09684
2020-12-04 17:19:01+00:00,275.098,6.48,14.48,47.84626,-54.09684
2020-12-04 17:29:01+00:00,270.2931,6.49,14.48,47.84626,-54.09684
2020-12-04 17:39:01+00:00,264.6448,6.5,14.48,47.84626,-54.09684
2020-12-04 17:49:01+00:00,254.4231,6.5,14.48,47.84626,-54.09684
2020-12-04 17:59:01+00:00,247.7197,6.48,14.48,47.84626,-54.09684
2020-12-04 18:09:01+00:00,242.3198,6.46,14.48,47.84626,-54.09684
2020-12-04 18:19:01+00:00,232.8198,6.4,14.24,47.84626,-54.09684
2020-12-04 18:29:01+00:00,221.9198,6.39,14.24,47.84626,-54.09684
2020-12-04 18:39:01+00:00,214.4381,6.3,14.24,47.84626,-54.09684
2020-12-04 18:49:01+00:00,211.7465,6.3,14.24,47.84626,-54.09684
2020-12-04 18:59:01+00:00,207.7564,6.3,14.24,47.84626,-54.09684
2020-12-04 19:09:01+00:00,201.6115,6.34,14.24,47.84626,-54.09684
2020-12-04 19:19:01+00:00,197.9631,6.3,13.68,47.84626,-54.09684
2020-12-04 19:29:01+00:00,194.6315,6.3,13.68,47.84626,-54.09684
2020-12-04 19:39:01+00:00,191.5031,6.3,13.68,47.84626,-54.09684
2020-12-04 19:49:01+00:00,191.9615,6.3,13.68,47.84626,-54.09684
2020-12-04 19:59:01+00:00,192.2765,6.3,13.68,47.84626,-54.09684
2020-12-04 20:09:01+00:00,187.0731,6.22,13.68,47.84626,-54.09684
2020-12-04 20:19:01+00:00,186.8431,6.24,13.21,47.84626,-54.09684
2020-12-04 20:29:01+00:00,195.6581,6.28,13.21,47.84626,-54.09684
2020-12-04 20:39:01+00:00,199.4297,6.3,13.21,47.84626,-54.09684
2020-12-04 20:49:01+00:00,197.3598,6.3,13.21,47.84626,-54.09684
2020-12-04 20:59:01+00:00,204.3914,6.3,13.21,47.84626,-54.09684
2020-12-04 21:09:01+00:00,213.2314,6.3,13.21,47.84626,-54.09684
2020-12-04 21:19:01+00:00,213.7965,6.36,12.89,47.84626,-54.09684
2020-12-04 21:29:01+00:00,216.5081,6.36,12.89,47.84626,-54.09684
2020-12-04 21:39:01+00:00,223.9181,6.36,12.89,47.84626,-54.09684
2020-12-04 21:49:01+00:00,225.0448,6.38,12.89,47.84626,-54.09684
2020-12-04 21:59:01+00:00,226.2631,6.3,12.89,47.84626,-54.09684
2020-12-04 22:09:01+00:00,232.7948,6.3,12.89,47.84626,-54.09684
2020-12-04 22:19:01+00:00,237.8165,6.3,12.73,47.84626,-54.09684
2020-12-04 22:29:01+00:00,234.4031,6.3,12.73,47.84626,-54.09684
2020-12-04 22:39:01+00:00,232.4464,6.3,12.73,47.84626,-54.09684
2020-12-04 22:49:01+00:00,242.3414,6.31,12.73,47.84626,-54.09684
2020-12-04 22:59:01+00:00,247.2831,6.39,12.73,47.84626,-54.09684
2020-12-04 23:09:01+00:00,245.1181,6.4,12.73,47.84626,-54.09684
2020-12-04 23:19:01+00:00,246.9898,6.4,12.73,47.84626,-54.09684
2020-12-04 23:29:01+00:00,255.048,6.4,12.73,47.84626,-54.09684
2020-12-04 23:39:01+00:00,255.8098,6.4,12.73,47.84626,-54.09684
2020-12-04 23:49:01+00:00,259.8014,6.4,12.73,47.84626,-54.09684
2020-12-04 23:59:01+00:00,265.9247,6.4,12.73,47.84626,-54.09684
